Location: Guadanolo
(41.9167°N, 12.9333°E)
Time: 18:42:07
(UTC+00:00)

CZ-2C R/B - Pass Details

Date: 16 September 2019
Orbit: 785 x 870 km, 98.3° (Epoch: 20 October)

Event Time Altitude Azimuth Distance (km) Brightness Sun altitude
Rises 19:28:16 0° 21° (NNE) 3,428 6.0 -24.2°
Reaches altitude 10° 19:30:49 10° 29° (NNE) 2,498 5.1 -24.7°
Enters shadow 19:33:18 24° 46° (NE) 1,700 4.1 -25.1°
